www.pogodaiklimat.ru

Погода и климат >> Архив погоды >> Украина >> Одесса


АРХИВ ПОГОДЫ в Одессе

Время (UTC), дата Ветер
(напр.,м/с)
 
Видим.   Явления Облачность Т
(С)
Тd
(С)
f
(%)
Тe
(С)
Тes
(С)
Комфортность P
(гПа)
Po
(гПа)
Тmin
(С)
Tmax
(С)
R
(мм)
R24
(мм)
S
(см)
09 18.06 СВ 2 15 км слабый ливневой дождь 10/10 600 м
[Cb calv]
+16.9 +14.9 88 +17 +17 холодно 1011.8 1006.8
12 18.06 Ю 1 30 км в посл. час ливневой дождь 10/8 600 м
[Cb calv Ac und Ci sp]
+19.8 +13.5 67 +23 +25 комфорт 1012.2 1007.3
15 18.06 штиль 0 26 км {ливн. осадки} 9/3 600 м
[Sc Cc]
+20.1 +12.4 61 +22 +25 комфорт 1012.4 1007.5
18 18.06 штиль 0 30 км в посл. час ливневой дождь 10/4 600 м
[Cb calv Ac und Ci fib]
+17.9 +13.7 76 +18 +18 прохладно 1014.0 1009.0 +21.4 0.0
21 18.06 СЗ 1 40 км {ливн. осадки} 10/4 600 м
[Sc Ac und Ci fib]
+17.9 +14.1 78 +19 +19 по сезону 1014.1 1009.1
00 19.06 СЗ 1 40 км {ливн. осадки} 8/3 600 м
[Sc Ac und]
+17.2 +13.3 78 +18 +18 по сезону 1014.0 1009.0
03 19.06 СЗ 3 40 км 6/3 600 м
[Sc Ac trans]
+17.3 +13.4 78 +17 +17 прохладно 1014.1 1009.1
06 19.06 С 1 35 км 4/3 600 м
[Cu hum Ac trans]
+22.5 +14.5 61 +26 +32 жарко 1014.9 1010.0 +16.5 0.0
09 19.06 С 1 30 км 6/5 600 м
[Cu hum Ci fib]
+26.6 +13.1 43 +28 +39 жарко 1014.4 1009.6
12 19.06 С 2 29 км 8/6 600 м
[Cu hum Ci fib]
+25.5 +12.7 45 +27 +33 жарко 1013.7 1008.9
15 19.06 СЗ 2 50 км 8/5 600 м
[Cu hum Ac trans Ci fib]
+26.4 +9.3 34 +27 +28 жарко 1012.9 1008.1
18 19.06 СЗ 3 50 км 8/4 600 м
[Sc diur, vesp Ac trans Ci fib]
+23.3 +8.4 39 +25 +25 комфорт 1013.3 1008.4 +28.5
21 19.06 СЗ 2 50 км 8/0
[Ac trans]
+21.2 +11.0 52 +23 +23 комфорт 1013.6 1008.7
00 20.06 СЗ 2 50 км 8/0
[Ac trans]
+20.9 +12.4 58 +24 +24 комфорт 1013.1 1008.2
03 20.06 СЗ 2 45 км 3/0
[Ci fib]
+19.7 +14.2 71 +22 +23 комфорт 1012.5 1007.6
06 20.06 СЗ 1 40 км 4/3 600 м
[Sc Ci fib]
+24.4 +15.6 58 +27 +34 жарко 1012.8 1008.0 +19.5
09 20.06 С 2 30 км 8/4 600 м
[Sc diur, vesp Ac trans Ci fib]
+29.6 +15.1 41 +32 +39 душно 1012.8 1008.0
12 20.06 З 3 35 км гроза без осадков {ливн. осадки} 8/6 600 м
[Cb cap Ac trans Ci fib]
+20.5 +18.1 86 +24 +28 комфорт 1012.4 1007.5
15 20.06 Ю 3 30 км слабый ливневой дождь {гроза} 9/6 300 м
[Cb cap Ac trans Ci fib]
+23.6 +16.4 64 +27 +28 жарко 1011.4 1006.5
18 20.06 З 1 35 км {гроза, ливн. осадки} 3/3 600 м
[Sc]
+22.3 +16.6 70 +27 +27 душно 1011.0 1006.1 +30.4 2
21 20.06 З 2 40 км ясно +21.4 +15.9 71 +25 +25 комфорт 1011.2 1006.3
00 21.06 З 2 45 км ясно +21.2 +14.6 66 +24 +24 комфорт 1010.6 1005.7
03 21.06 З 1 45 км 3/0
[Ci fib]
+20.4 +13.8 66 +24 +24 комфорт 1010.4 1005.5
06 21.06 СЗ 1 30 км ясно +27.2 +15.8 50 +30 +40 душно 1010.4 1005.6 +20.3
09 21.06 Ю 2 35 км 8/6 600 м
[Sc diur, vesp Ac und Ci fib]
+26.0 +15.3 52 +29 +34 душно 1010.2 1005.4
12 21.06 ЮВ 1 21 км 8/6 600 м
[Cu med, cong Ac und Ci fib]
+28.0 +13.3 40 +30 +35 жарко 1008.7 1003.9
15 21.06 Ю 2 10 км гроза, ливневой дождь 9/8 300 м
[Cb calv Ci fib]
+21.1 +17.5 80 +25 +26 комфорт 1009.3 1004.4
18 21.06 ЮЗ 2 4200 м гроза без осадков {ливн. осадки} 10/6 600 м
[Cb cap Ac und Ci fib]
+20.4 +18.0 86 +25 +25 комфорт 1010.1 1005.2 +30.0 12
21 21.06 З 2 5000 м дымка {гроза} 8/0
[Ac As Ci fib]
+19.6 +18.6 94 +23 +23 комфорт 1011.0 1006.1
00 22.06 СЗ 1 50 км {гроза} 10/0
[Ac trans Ci ing]
+19.9 +13.4 66 +23 +23 комфорт 1011.4 1006.5
03 22.06 СЗ 2 45 км 8/0
[Ci fib]
+18.2 +12.4 69 +19 +19 по сезону 1012.4 1007.4
06 22.06 С 2 23 км 4/0
[Ci fib]
+22.9 +12.8 53 +26 +33 жарко 1013.9 1009.0 +18.2
09 22.06 С 2 30 км 4/1 600 м
[Cu hum Ci fib]
+26.1 +7.2 30 +26 +41 жарко 1014.0 1009.2
12 22.06 Ю 1 30 км 10/3 600 м
[Cu hum Ci]
+27.3 +7.7 29 +27 +37 жарко 1013.8 1009.0
15 22.06 СЗ 2 50 км 10/4 600 м
[Sc Cs]
+25.8 +8.3 33 +26 +28 жарко 1013.3 1008.5
18 22.06 штиль 0 35 км 8/0
[Ac und]
+22.6 +8.7 41 +24 +24 комфорт 1013.6 1008.7 +27.7
21 22.06 СЗ 2 20 км 8/0
[Ac und]
+21.1 +8.5 44 +22 +22 комфорт 1014.1 1009.2
00 23.06 З 2 50 км 10/0
[Ac und]
+19.3 +13.1 67 +21 +21 комфорт 1013.9 1009.0
03 23.06 З 1 45 км 8/0
[Ac und Cc]
+18.9 +14.4 75 +21 +21 комфорт 1013.2 1008.3
06 23.06 Ю 2 20 км 10/0
[Ci]
+21.8 +16.5 72 +26 +32 душно 1013.1 1008.2 +18.0
09 23.06 Ю 5 40 км 6/3 600 м
[Sc diur, vesp Ci fib]
+23.2 +18.3 74 +29 +35 душно 1012.5 1007.6
12 23.06 Ю 5 17 км 10/3 600 м
[Cu med, cong Ci]
+23.7 +20.4 82 +29 +34 душно 1009.9 1005.1
15 23.06 З 4 1500 м гроза, ливневой дождь 10/8 300 м
[Cb cap Ac trans]
+22.4 +15.0 63 +26 +26 жарко 1009.4 1004.5
18 23.06 ЮЗ 2 18 км {гроза, ливн. осадки} 10/4 600 м
[Sc diur, vesp Ci ing]
+19.0 +17.0 88 +21 +21 комфорт 1006.4 1001.5 +24.5 7
21 23.06 З 2 11 км в посл. час гроза {ливн. осадки} 10/6 600 м
[Cb cap Ci ing]
+19.4 +17.7 90 +22 +22 комфорт 1006.5 1001.6
00 24.06 З 2 29 км {гроза, ливн. осадки} 8/3 600 м
[Sc Ac trans Ci fib]
+17.8 +16.1 90 +18 +18 по сезону 1007.3 1002.4
03 24.06 З 2 17 км 3/0
[Ci fib]
+17.0 +15.3 90 +17 +18 прохладно 1008.2 1003.2
06 24.06 СЗ 2 26 км 6/3 600 м
[Cu hum Ci fib]
+21.5 +16.7 74 +25 +31 комфорт 1009.5 1004.6 +16.4 0.5
09 24.06 СЗ 2 27 км 9/6 720 м
[Sc diur, vesp Ac trans]
+21.8 +17.0 74 +26 +30 душно 1010.6 1005.7
12 24.06 СЗ 3 50 км 6/3 600 м
[Cu med, cong Ac trans]
+25.5 +15.8 55 +29 +35 душно 1010.7 1005.9
15 24.06 СЗ 2 50 км 10/6 1500 м
[Sc diur, vesp Ac trans Ci fib]
+26.0 +13.4 46 +28 +29 жарко 1011.5 1006.7
18 24.06 З 1 30 км 4/3 600 м
[Sc diur, vesp Ci fib]
+22.5 +14.4 60 +26 +26 жарко 1012.5 1007.6 +27.0
21 24.06 З 2 24 км 6/0
[Ci fib]
+20.4 +15.8 75 +24 +24 комфорт 1013.8 1008.9
00 25.06 З 1 30 км 10/0
[Ac trans Ci fib]
+19.4 +15.3 77 +22 +22 комфорт 1014.3 1009.4
03 25.06 З 2 30 км ясно +18.7 +15.4 81 +20 +21 по сезону 1015.3 1010.3
06 25.06 СВ 2 45 км ясно +22.6 +14.7 61 +26 +35 жарко 1015.9 1011.0 +18.2

 

Местоположение метеостанции Одесса (Одесская область, Украина): широта 46.43 долгота 30.77 высота над уровнем моря 42 м.

В архиве по умолчанию представлена погода в Одессе за последнюю неделю. Архивные данные за месяц целиком и за предыдущие месяцы, начиная с января 2011 года, Вы можете получить, выбрав интересующий диапазон дат из раскрывающегося списка и нажав кнопку "Ввод!".

Внимание! Время в таблицах - всемирное. Для получения местного времени необходимо прибавить поправку, которая в Одессе равна 2 ч.

Смотрите также архив погоды в соседних городах и на ближайших метеорологических станциях:

Погода в Ильичёвске (Одесская область, Украина) (6 км)
Погода в Белгород-Днестровском (Одесская область, Украина) (41 км)
Погода в Очакове (Николаевская область, Украина) (64 км)
Погода в Сербке (Одесская область, Украина) (66 км)
Погода в Раздельной (Одесская область, Украина) (70 км)
Погода в Заставе (Одесская область, Украина) (72 км)
Погода в Сарате (Одесская область, Украина) (96 км)
Погода в Штефан Водэ (Молдова) (99 км)
Погода в Тирасполе (Молдова) (103 км)
Погода в Николаеве (Николаевская область, Украина) (112 км)

Пояснения к столбцам:

Ветер - указаны скорость ветра в м/с - средняя за 10 мин, порывы в срок и между сроками (в фигурных скобках) и направление, откуда дует ветер: С - северный, СВ - северо-восточный, В - восточный, ЮВ - юго-восточный, Ю - южный, ЮЗ - юго-западный, З - западный, СЗ - северо-западный.
Видимость - горизонтальная дальность видимости в метрах или километрах. При видимости от 1 до 10 км при отсутствии осадков обычно наблюдается дымка, при ухудшении видимости до 1 км и менее - туман. В сухую погоду видимость может ухудшаться дымом, пылью или мглою.
Явления - указаны атмосферные явления, наблюдавшиеся в срок или в последний час перед сроком; фигурными скобками обозначены явления, наблюдавшиеся между сроками (за 1-3 часа до срока); квадратными скобками обозначены град или гололедные отложения с указанием их диаметра в мм.
Облачность - указаны через наклонную черту общая и нижняя облачность в баллах и высота нижней границы облаков в метрах; квадратными скобками обозначены формы облаков: Ci - перистые, Cs - перисто-слоистые, Cc - перисто-кучевые, Ac - высококучевые, As - высокослоистые, Sc - слоисто-кучевые, Ns - слоисто-дождевые, Cu - кучевые, Cb - кучево-дождевые. Подробнее классификацию облаков см. в Атласе облаков (PDF).
T - Температура воздуха - температура, измеренная на высоте 2 м над землей.
Td - Температура точки росы - температура, при понижении до которой содержащийся в воздухе водяной пар достигнет насыщения.
f - Относительная влажность воздуха - влажноcть воздуха, измеренная на высоте 2 м над землей.
Te - Эффективная температура - температура, которую ощущает одетый по сезону человек в тени. Характеристика душности погоды. При расчете учитывается влияние влажности воздуха и скорости ветра на теплоощущения человека.
Tes - Эффективная температура на солнце - температура, которую ощущает человек, с поправкой на солнечный нагрев. Характеристика знойности погоды. Зависит от высоты солнца над горизонтом, облачности и скорости ветра. Ночью, в пасмурную погоду, а также при ветре 12 м/с и более поправка равна нулю.
P - Атмосферное давление - приведенное к уровню моря атмосферное давление.
Po - Атмосферное давление - измеренное на уровне метеостанции атмосферное давление.
Tmin - Минимальная температура - минимум температуры воздуха на высоте 2 м над землей.
Tmax - Максимальная температура - максимум температуры воздуха на высоте 2 м над землей.
R - Количество осадков - Количество выпавших осадков за период времени, мм. При наведении курсора мыши на число - период времени, за который выпало указанное количество осадков.
R24 - Количество осадков - Количество выпавших осадков за 24 часа, мм.
S - Снежный покров - Высота снежного покрова, см. При наведении курсора мыши на число - состояние снежного покрова и степень покрытия местности в баллах.